Hourly Data Report for October 08, 2020

SHEARWATER RCS
NOVA SCOTIA
Current Station Operator: ECCC - MSC

44°37'47.000" N
63°30'48.000" W
24.00 m
8205092
71264
AAW

Download Data

Hourly Data (October 2020)
Hourly Data Report for October 8, 2020
TIME Temp Definition
°C
Dew Point Definition
°C
Rel Hum Definition
%
Wind Dir Definition
10's deg

Wind Spd Definition
km/h
Visibility Definition
km
Stn Press Definition
kPa
Hmdx Definition


Wind Chill Definition


Weather Definition


00:00 15.1 13.8 92 23 19   98.67     LegendNANA
01:00 14.9 13.8 94 22 15   98.57     LegendNANA
02:00 14.3 12.5 89 23 15   98.48     LegendNANA
03:00 13.6 12.0 90 24 17   98.44     LegendNANA
04:00 13.4 10.7 84 26 17   98.45     LegendNANA
05:00 12.9 10.2 84 25 20   98.48     LegendNANA
06:00 12.4 10.2 86 25 23   98.49     LegendNANA
07:00 12.4 9.9 85 25 22   98.49     LegendNANA
08:00 12.2 10.4 88 26 18   98.58     LegendNANA
09:00 12.9 9.2 78 27 20   98.66     LegendNANA
10:00 13.1 8.3 73 27 24   98.74     LegendNANA
11:00 12.9 7.5 70 28 25   98.83     LegendNANA
12:00 13.0 7.4 69 29 26   98.90     LegendNANA
13:00 13.2 5.7 61 29 24   98.99     LegendNANA
14:00 12.7 4.4 57 29 25   99.07     LegendNANA
15:00 12.6 4.2 56 29 28   99.13     LegendNANA
16:00 13.0 3.5 53 29 25   99.19     LegendNANA
17:00 11.8 2.3 52 29 27   99.32     LegendNANA
18:00 11.0 1.7 53 29 21   99.49     LegendNANA
19:00 10.3 1.0 52 30 24   99.65     LegendNANA
20:00 9.4 0.5 54 30 16   99.78     LegendNANA
21:00 8.5 -0.8 52 31 18   99.89     LegendNANA
22:00 7.7 -2.4 49 31 25   99.98     LegendNANA
23:00 7.2 -2.3 51 30 24   100.04     LegendNANA

Notes on Data Quality.

Legend

  • E = Estimated
  • M = Missing
  • NA = Not Available*
  • [empty] = Indicates an unobserved value
Date modified: